Simultaneous Nadir Overpasses (SNOs) Predictions

Prediction of SNOs near equator between AQUA and NPP Satellite Orbit:

Table of predicted SNOs near equator for the next 14.0 days since TLE Epoch: 9/25/2015
Index Date (AQUA) Time (AQUA) AQUA Lat,Lon Date (NPP) Time (NPP) NPP Lat,Lon Distance(km) Time Diff (sec)
1 09/26/2015 22:37:01 29.94,-140.12 09/26/2015 22:27:56 30.01,-139.94 18.13 545
2 09/26/2015 23:23:39 -20.01, 29.97 09/26/2015 23:15:46 -20.02, 29.96 0.86 473
3 09/27/2015 00:06:07 -5.49,-156.87 09/26/2015 23:59:21 -5.50,-156.92 6.35 406
4 09/27/2015 00:54:15 10.00, 11.76 09/27/2015 00:48:44 10.05, 11.44 35.81 331
5 09/27/2015 01:42:29 -14.62,-179.61 09/27/2015 01:38:14 -14.71, 179.80 64.37 255
6 09/27/2015 02:30:37 19.12, -10.93 09/27/2015 02:27:37 19.26, -11.78 90.80 180
7 09/29/2015 14:04:00 -29.96, 168.13 09/29/2015 13:54:00 -30.18, 168.49 42.67 600
8 09/29/2015 14:53:30 29.97, -24.25 09/29/2015 14:44:46 30.01, -24.17 9.24 524
9 09/29/2015 15:37:36 -10.87, 147.89 09/29/2015 15:30:00 -10.87, 147.89 0.21 456
10 09/29/2015 16:22:15 -6.74, -40.72 09/29/2015 16:15:49 -6.79, -40.86 15.54 386
11 09/29/2015 17:10:23 11.24, 127.90 09/29/2015 17:05:12 11.33, 127.51 44.52 311
12 09/29/2015 17:58:37 -15.86, -63.45 09/29/2015 17:54:42 -15.99, -64.12 72.58 235
13 09/29/2015 18:46:45 20.36, 105.23 09/29/2015 18:44:05 20.54, 104.30 98.37 160
14 10/02/2015 06:20:30 -30.00, -76.01 10/02/2015 06:10:46 -30.06, -75.69 31.37 584
15 10/02/2015 07:09:59 29.95, 91.63 10/02/2015 07:01:33 29.96, 91.64 0.85 506
16 10/02/2015 07:51:54 -2.94, -94.53 10/02/2015 07:44:33 -2.94, -94.54 0.41 441
17 10/02/2015 08:38:27 -7.78, 75.38 10/02/2015 08:32:19 -7.84, 75.17 23.51 368
18 10/02/2015 09:26:35 12.29,-115.99 10/02/2015 09:21:42 12.38,-116.46 52.29 293
19 10/02/2015 10:14:49 -16.90, 52.66 10/02/2015 10:11:12 -17.03, 51.92 79.94 217
20 10/04/2015 22:36:59 -30.00, 39.87 10/04/2015 22:27:31 -30.06, 40.11 24.26 568
21 10/04/2015 23:24:44 23.69,-150.93 10/04/2015 23:16:31 23.69,-150.92 1.21 493
22 10/05/2015 00:06:34 3.64, 22.74 10/04/2015 23:59:26 3.64, 22.74 1.06 428
23 10/05/2015 00:54:40 -8.74,-168.54 10/05/2015 00:48:48 -8.78,-168.82 30.58 352
24 10/05/2015 01:42:49 13.19, 0.09 10/05/2015 01:38:11 13.32, -0.44 58.99 278
25 10/05/2015 02:31:03 -17.80, 168.74 10/05/2015 02:27:41 -17.97, 167.94 86.21 202
26 10/07/2015 14:53:27 -29.96, 155.76 10/07/2015 14:44:12 -29.99, 155.94 18.23 555
27 10/07/2015 15:39:45 18.41, -33.81 10/07/2015 15:31:43 18.41, -33.80 1.06 482
28 10/07/2015 16:22:42 4.89, 138.89 10/07/2015 16:15:47 4.88, 138.83 7.10 415
29 10/07/2015 17:10:56 -9.50, -52.50 10/07/2015 17:05:16 -9.60, -52.81 36.49 340
30 10/07/2015 17:59:04 14.01, 116.15 10/07/2015 17:54:39 14.14, 115.56 64.59 265
31 10/07/2015 18:47:18 -18.62, -75.20 10/07/2015 18:44:09 -18.78, -76.05 91.46 189
